Flag Island, MN

3:26 AM CST on January 21, 2018 (GMT -0600)
Flag Island

Weather History for KFGN - October, 2012

Change the Weather History Date:

Wednesday, October 24, 2012

  Actual Average Record
Temperature  
Mean Temperature 42 °F -  
Max Temperature 48 °F 40 °F 66 °F (2014)
Min Temperature 35 °F 32 °F 23 °F (1997)
Degree Days  
Heating Degree Days 24    
Moisture  
Dew Point 38 °F    
Average Humidity 89    
Maximum Humidity 100    
Minimum Humidity 81    
Precipitation  
Precipitation 0.00 in - - ()
Sea Level Pressure  
Sea Level Pressure 29.85 in    
Wind  
Wind Speed 10 mph (West)    
Max Wind Speed 16 mph    
Max Gust Speed 22 mph    
Visibility 9 miles    
Events      
Averages and records for this station are not official NWS values.
T = Trace of Precipitation, MM = Missing Value Source: NWS Daily Summary

Daily Weather History Graph

Daily Weather History Graph

Search for Another Location

Airport or City:

Trip Planner

Search our weather history database for the weather conditions in past years. The results will help you decide how hot, cold, wet, or windy it might be!

Date:

Astronomy

Oct. 24, 2012 Rise Set
Actual Time 7:55 AM CDT 6:11 PM CDT
Civil Twilight 7:22 AM CDT 6:43 PM CDT
Nautical Twilight 6:45 AM CDT 7:20 PM CDT
Astronomical Twilight 6:08 AM CDT 7:57 PM CDT
Moon 3:49 PM CDT (10/24) 2:26 AM CDT (10/24)
Length of Visible Light 11h 20m
Length of Day
10h 15m
Waxing Gibbous, 76% of the Moon is Illuminated
Oct 24
Waxing Gibbous
Oct 29
Full
Nov 6
Last Quarter
Nov 13
New
Nov 20
First Quarter

Hourly Weather History & Observations

Time (CDT) Temp. Windchill Dew Point Humidity Pressure Visibility Wind Dir Wind Speed Gust Speed Precip Events Conditions
12:13 AM 46.4 °F 41.1 °F 46.4 °F 100% 29.66 in 1.8 mi South 11.5 mph - N/A   Light Drizzle
12:34 AM 46.4 °F 40.7 °F 46.4 °F 100% 29.66 in 1.8 mi South 12.7 mph - N/A   Overcast
12:53 AM 46.4 °F 41.9 °F 46.4 °F 100% 29.66 in 0.8 mi South 9.2 mph - N/A   Overcast
1:13 AM 46.4 °F 43.5 °F 46.4 °F 100% 29.68 in 0.8 mi SSW 5.8 mph - N/A   Overcast
1:34 AM 48.2 °F - 46.4 °F 93% 29.69 in 5.0 mi SW 9.2 mph - N/A   Overcast
1:53 AM 48.2 °F - 48.2 °F 100% 29.69 in 10.0 mi West 8.1 mph - N/A   Overcast
2:13 AM 48.2 °F - 46.4 °F 93% 29.69 in 10.0 mi West 8.1 mph - N/A   Overcast
2:34 AM 48.2 °F - 46.4 °F 93% 29.72 in 10.0 mi West 11.5 mph - N/A   Overcast
2:53 AM 48.2 °F - 46.4 °F 93% 29.73 in 10.0 mi West 10.4 mph - N/A   Overcast
3:13 AM 48.2 °F - 46.4 °F 93% 29.74 in 10.0 mi West 6.9 mph - N/A   Overcast
3:34 AM 48.2 °F - 44.6 °F 87% 29.75 in 10.0 mi West 6.9 mph - N/A   Overcast
3:54 AM 48.2 °F - 44.6 °F 87% 29.74 in 10.0 mi West 10.4 mph - N/A   Overcast
4:13 AM 46.4 °F 41.5 °F 44.6 °F 93% 29.76 in 10.0 mi West 10.4 mph - N/A   Overcast
4:34 AM 46.4 °F 40.1 °F 42.8 °F 87% 29.77 in 10.0 mi West 15.0 mph 19.6 mph N/A   Overcast
4:53 AM 44.6 °F 38.1 °F 42.8 °F 93% 29.78 in 10.0 mi West 13.8 mph - N/A   Overcast
5:13 AM 44.6 °F 39.7 °F 41.0 °F 87% 29.77 in 10.0 mi West 9.2 mph 15.0 mph N/A   Overcast
5:33 AM 44.6 °F 39.7 °F 41.0 °F 87% 29.77 in 10.0 mi West 9.2 mph - N/A   Overcast
5:53 AM 42.8 °F 37.0 °F 41.0 °F 93% 29.79 in 10.0 mi West 10.4 mph - N/A   Overcast
6:14 AM 42.8 °F 36.2 °F 41.0 °F 93% 29.80 in 10.0 mi West 12.7 mph - N/A   Overcast
6:33 AM 42.8 °F 35.4 °F 39.2 °F 87% 29.79 in 10.0 mi West 15.0 mph - N/A   Overcast
6:53 AM 42.8 °F 35.8 °F 41.0 °F 93% 29.82 in 10.0 mi WNW 13.8 mph - N/A   Overcast
7:14 AM 42.8 °F 36.6 °F 39.2 °F 87% 29.83 in 10.0 mi West 11.5 mph - N/A   Overcast
7:33 AM 42.8 °F 38.6 °F 39.2 °F 87% 29.83 in 10.0 mi West 6.9 mph - N/A   Overcast
7:53 AM 42.8 °F 40.1 °F 39.2 °F 87% 29.84 in 10.0 mi West 4.6 mph - N/A   Overcast
8:14 AM 42.8 °F 39.3 °F 39.2 °F 87% 29.84 in 7.0 mi West 5.8 mph - N/A   Overcast
8:53 AM 42.8 °F 37.5 °F 39.2 °F 87% 29.86 in 10.0 mi West 9.2 mph - N/A   Overcast
9:14 AM 42.8 °F 37.5 °F 39.2 °F 87% 29.87 in 10.0 mi WSW 9.2 mph - N/A   Overcast
9:33 AM 41.0 °F 34.7 °F 39.2 °F 93% 29.88 in 10.0 mi West 10.4 mph - N/A   Overcast
9:53 AM 41.0 °F 35.2 °F 37.4 °F 87% 29.89 in 10.0 mi West 9.2 mph - N/A   Overcast
10:14 AM 39.2 °F 32.0 °F 37.4 °F 93% 29.89 in 10.0 mi WNW 11.5 mph - N/A   Overcast
10:33 AM 39.2 °F 32.5 °F 37.4 °F 93% 29.89 in 10.0 mi West 10.4 mph - N/A   Overcast
11:14 AM 39.2 °F 34.2 °F 37.4 °F 93% 29.89 in 10.0 mi WNW 6.9 mph - N/A   Overcast
11:33 AM 39.2 °F 35.9 °F 37.4 °F 93% 29.89 in 7.0 mi WNW 4.6 mph 9.2 mph N/A   Overcast
11:53 AM 39.2 °F 34.2 °F 37.4 °F 93% 29.89 in 5.0 mi WSW 6.9 mph - N/A   Overcast
12:14 PM 39.2 °F 33.6 °F 37.4 °F 93% 29.88 in 5.0 mi West 8.1 mph - N/A   Overcast
12:33 PM 39.2 °F 32.5 °F 37.4 °F 93% 29.88 in 5.0 mi West 10.4 mph - N/A   Overcast
12:53 PM 39.2 °F 35.0 °F 37.4 °F 93% 29.88 in 10.0 mi West 5.8 mph - N/A   Overcast
1:33 PM 39.2 °F 35.0 °F 37.4 °F 93% 29.88 in 10.0 mi West 5.8 mph - N/A   Overcast
1:53 PM 41.0 °F 35.2 °F 37.4 °F 87% 29.88 in 10.0 mi West 9.2 mph - N/A   Overcast
2:13 PM 41.0 °F 33.9 °F 37.4 °F 87% 29.88 in 10.0 mi WNW 12.7 mph - N/A   Overcast
2:33 PM 41.0 °F 36.4 °F 37.4 °F 87% 29.89 in 10.0 mi West 6.9 mph - N/A   Overcast
2:53 PM 39.2 °F 33.0 °F 35.6 °F 87% 29.90 in 10.0 mi West 9.2 mph - N/A   Overcast
3:13 PM 39.2 °F 34.2 °F 37.4 °F 93% 29.90 in 10.0 mi West 6.9 mph - N/A   Overcast
3:33 PM 39.2 °F 32.0 °F 35.6 °F 87% 29.90 in 10.0 mi West 11.5 mph - N/A   Overcast
3:53 PM 39.2 °F 32.5 °F 35.6 °F 87% 29.91 in 10.0 mi West 10.4 mph - N/A   Overcast
4:14 PM 39.2 °F 33.0 °F 35.6 °F 87% 29.92 in 10.0 mi West 9.2 mph - N/A   Overcast
4:33 PM 39.2 °F 33.0 °F 35.6 °F 87% 29.92 in 10.0 mi West 9.2 mph - N/A   Overcast
4:54 PM 39.2 °F 35.9 °F 35.6 °F 87% 29.92 in 10.0 mi West 4.6 mph - N/A   Overcast
5:34 PM 39.2 °F 35.9 °F 35.6 °F 87% 29.92 in 10.0 mi West 4.6 mph - N/A   Overcast
5:53 PM 39.2 °F 35.0 °F 35.6 °F 87% 29.92 in 10.0 mi West 5.8 mph - N/A   Overcast
6:14 PM 39.2 °F 35.0 °F 35.6 °F 87% 29.92 in 10.0 mi West 5.8 mph - N/A   Overcast
6:33 PM 39.2 °F 33.6 °F 35.6 °F 87% 29.91 in 10.0 mi West 8.1 mph - N/A   Overcast
6:54 PM 39.2 °F 32.5 °F 33.8 °F 81% 29.92 in 10.0 mi West 10.4 mph - N/A   Overcast
7:34 PM 37.4 °F 28.5 °F 33.8 °F 87% 29.92 in 10.0 mi WNW 15.0 mph - N/A   Overcast
8:13 PM 37.4 °F 28.5 °F 32.0 °F 81% 29.92 in 10.0 mi NW 15.0 mph - N/A   Overcast
8:33 PM 37.4 °F 29.8 °F 33.8 °F 87% 29.91 in 10.0 mi WNW 11.5 mph - N/A   Overcast
8:53 PM 37.4 °F 29.8 °F 32.0 °F 81% 29.91 in 10.0 mi WNW 11.5 mph - N/A   Overcast
9:13 PM 37.4 °F 28.9 °F 32.0 °F 81% 29.92 in 10.0 mi NW 13.8 mph - N/A   Overcast
9:54 PM 37.4 °F 28.9 °F 32.0 °F 81% 29.92 in 10.0 mi NW 13.8 mph - N/A   Mostly Cloudy
10:13 PM 37.4 °F 28.5 °F 32.0 °F 81% 29.93 in 10.0 mi WNW 15.0 mph 21.9 mph N/A   Overcast
10:33 PM 35.6 °F 25.9 °F 30.2 °F 81% 29.93 in 10.0 mi WNW 16.1 mph 21.9 mph N/A   Overcast
10:54 PM 35.6 °F 26.2 °F 30.2 °F 81% 29.94 in 10.0 mi NW 15.0 mph - N/A   Overcast
11:13 PM 35.6 °F 26.6 °F 30.2 °F 81% 29.94 in 10.0 mi NW 13.8 mph - N/A   Overcast
11:33 PM 35.6 °F 27.5 °F 30.2 °F 81% 29.94 in 10.0 mi WNW 11.5 mph - N/A   Overcast
11:54 PM 35.6 °F 28.0 °F 30.2 °F 81% 29.93 in 10.0 mi NW 10.4 mph - N/A   Overcast